| time (UTC) | temp F | wind direction | speed knots | gust knots | rain 1hr in | rain 24hr in | rain mn in | humidity % | barometer mb |
| 20260509024555 | 63 | 237 | 2.6 | 10.4 | 0.00 | 0.00 | 0.00 | 58 | 1003.0 |
| 20260509023056 | 65 | 259 | 0.9 | 5.2 | 0.00 | 0.00 | 0.00 | 48 | 1002.6 |
| 20260509021555 | 65 | 153 | 0.9 | 7.8 | 0.00 | 0.00 | 0.00 | 47 | 1002.7 |
| 20260509020057 | 65 | 79 | 0.9 | 5.2 | 0.00 | 0.00 | 0.00 | 47 | 1002.6 |
| 20260509014557 | 65 | 0 | 0.9 | 5.2 | 0.00 | 0.00 | 0.00 | 48 | 1002.5 |
| 20260509013057 | 65 | 0 | 0.0 | 5.2 | 0.00 | 0.00 | 0.00 | 49 | 1002.5 |
| 20260509011553 | 66 | 0 | 2.6 | 7.0 | 0.00 | 0.00 | 0.00 | 47 | 1002.7 |
| 20260509010055 | 66 | 311 | 0.9 | 7.8 | 0.00 | 0.00 | 0.00 | 45 | 1002.5 |
| 20260509004555 | 67 | 300 | 2.6 | 8.7 | 0.00 | 0.00 | 0.00 | 44 | 1002.4 |
| 20260509003058 | 67 | 94 | 1.7 | 8.7 | 0.00 | 0.00 | 0.00 | 44 | 1002.1 |
| 20260509001557 | 67 | 0 | 2.6 | 10.4 | 0.00 | 0.00 | 0.00 | 43 | 1002.1 |
| 20260509000058 | 67 | 170 | 1.7 | 7.8 | 0.00 | 0.00 | 0.00 | 43 | 1002.2 |
| 20260508234556 | 67 | 143 | 0.9 | 7.0 | 0.00 | 0.00 | 0.00 | 44 | 1002.2 |
| 20260508233102 | 67 | 0 | 2.6 | 7.0 | 0.00 | 0.00 | 0.00 | 43 | 1002.1 |
| 20260508231633 | 67 | 321 | 2.6 | 9.6 | 0.00 | 0.00 | 0.00 | 42 | 1002.2 |
| 20260508230059 | 68 | 149 | 1.7 | 11.3 | 0.00 | 0.00 | 0.00 | 43 | 1002.0 |
| 20260508224600 | 68 | 316 | 0.9 | 7.0 | 0.00 | 0.00 | 0.00 | 42 | 1001.8 |
| 20260508223049 | 68 | 125 | 3.5 | 11.3 | 0.00 | 0.00 | 0.00 | 41 | 1001.7 |
| 20260508221559 | 68 | 110 | 2.6 | 9.6 | 0.00 | 0.00 | 0.00 | 42 | 1001.8 |
| 20260508220053 | 68 | 265 | 1.7 | 12.2 | 0.00 | 0.00 | 0.00 | 42 | 1001.7 |
| 20260508214626 | 68 | 165 | 4.3 | 13.0 | 0.00 | 0.00 | 0.00 | 41 | 1001.8 |
| 20260508213056 | 69 | 324 | 1.7 | 12.2 | 0.00 | 0.00 | 0.00 | 40 | 1002.1 |
| 20260508211558 | 69 | 157 | 1.7 | 9.6 | 0.00 | 0.00 | 0.00 | 40 | 1002.1 |
| 20260508210057 | 69 | 72 | 2.6 | 11.3 | 0.00 | 0.00 | 0.00 | 39 | 1002.5 |
| 20260508204556 | 68 | 124 | 6.1 | 13.9 | 0.00 | 0.00 | 0.00 | 39 | 1002.7 |
| 20260508203115 | 68 | 153 | 7.0 | 14.8 | 0.00 | 0.00 | 0.00 | 39 | 1002.9 |
| 20260508201555 | 68 | 98 | 5.2 | 13.0 | 0.00 | 0.00 | 0.00 | 38 | 1003.1 |
| 20260508194555 | 68 | 134 | 4.3 | 16.5 | 0.00 | 0.00 | 0.00 | 38 | 1003.3 |
| 20260508193137 | 68 | 111 | 7.8 | 19.1 | 0.00 | 0.00 | 0.00 | 38 | 1003.3 |
| 20260508191602 | 68 | 169 | 3.5 | 15.6 | 0.00 | 0.00 | 0.00 | 37 | 1003.5 |
| 20260508190051 | 68 | 34 | 7.8 | 15.6 | 0.00 | 0.00 | 0.00 | 37 | 1003.8 |
| 20260508184553 | 68 | 145 | 4.3 | 11.3 | 0.00 | 0.00 | 0.00 | 38 | 1003.9 |
| 20260508183052 | 68 | 230 | 7.0 | 17.4 | 0.00 | 0.00 | 0.00 | 38 | 1004.4 |
| 20260508181556 | 67 | 124 | 4.3 | 13.9 | 0.00 | 0.00 | 0.00 | 37 | 1004.5 |
| 20260508180105 | 67 | 100 | 4.3 | 12.2 | 0.00 | 0.00 | 0.00 | 37 | 1004.8 |
| 20260508174557 | 66 | 206 | 5.2 | 14.8 | 0.00 | 0.00 | 0.00 | 39 | 1004.8 |
| 20260508173053 | 66 | 161 | 5.2 | 20.0 | 0.00 | 0.00 | 0.00 | 39 | 1005.1 |
| 20260508171552 | 66 | 116 | 9.6 | 15.6 | 0.00 | 0.00 | 0.00 | 40 | 1005.5 |
| 20260508170049 | 65 | 111 | 7.0 | 19.1 | 0.00 | 0.00 | 0.00 | 40 | 1006.0 |
| 20260508164558 | 64 | 98 | 5.2 | 21.7 | 0.00 | 0.00 | 0.00 | 44 | 1006.3 |
| 20260508163051 | 64 | 113 | 15.6 | 22.6 | 0.00 | 0.00 | 0.00 | 43 | 1006.5 |
| 20260508161556 | 63 | 127 | 7.0 | 20.0 | 0.00 | 0.00 | 0.00 | 45 | 1006.7 |
| 20260508160052 | 62 | 118 | 11.3 | 19.1 | 0.00 | 0.00 | 0.00 | 47 | 1006.9 |
| 20260508154553 | 62 | 116 | 12.2 | 19.1 | 0.00 | 0.00 | 0.00 | 47 | 1007.1 |
| 20260508153052 | 62 | 108 | 12.2 | 18.2 | 0.00 | 0.00 | 0.00 | 47 | 1007.3 |
| 20260508151553 | 61 | 115 | 9.6 | 20.0 | 0.00 | 0.00 | 0.00 | 49 | 1007.5 |
| 20260508150055 | 60 | 108 | 5.2 | 13.9 | 0.00 | 0.00 | 0.00 | 50 | 1007.6 |
| 20260508144556 | 59 | 107 | 6.1 | 13.0 | 0.00 | 0.00 | 0.00 | 51 | 1007.7 |
| 20260508143054 | 57 | 171 | 8.7 | 16.5 | 0.00 | 0.00 | 0.00 | 52 | 1007.8 |
| 20260508141554 | 57 | 113 | 8.7 | 18.2 | 0.00 | 0.00 | 0.00 | 52 | 1007.9 |
| 20260508140104 | 56 | 108 | 10.4 | 14.8 | 0.00 | 0.00 | 0.00 | 53 | 1008.0 |
| 20260508134549 | 55 | 104 | 6.1 | 13.0 | 0.00 | 0.00 | 0.00 | 54 | 1008.1 |
| 20260508133051 | 55 | 97 | 6.1 | 12.2 | 0.00 | 0.00 | 0.00 | 53 | 1008.0 |
| 20260508131555 | 54 | 92 | 2.6 | 11.3 | 0.00 | 0.00 | 0.00 | 53 | 1007.9 |
| 20260508130052 | 53 | 97 | 0.9 | 5.2 | 0.00 | 0.00 | 0.00 | 57 | 1008.0 |
| 20260508124553 | 52 | 107 | 0.0 | 4.3 | 0.00 | 0.00 | 0.00 | 56 | 1007.9 |
| 20260508123055 | 51 | 140 | 0.9 | 7.8 | 0.00 | 0.00 | 0.00 | 57 | 1007.9 |
| 20260508121557 | 51 | 0 | 2.6 | 7.8 | 0.00 | 0.00 | 0.00 | 58 | 1007.9 |
| 20260508120056 | 50 | 117 | 1.7 | 5.2 | 0.00 | 0.00 | 0.00 | 60 | 1007.9 |
| 20260508114609 | 50 | 98 | 1.7 | 8.7 | 0.00 | 0.00 | 0.00 | 59 | 1007.7 |
| 20260508113103 | 50 | 0 | 2.6 | 9.6 | 0.00 | 0.00 | 0.00 | 58 | 1007.6 |
| 20260508111600 | 50 | 113 | 0.0 | 8.7 | 0.00 | 0.00 | 0.00 | 57 | 1007.5 |
| 20260508110051 | 50 | 0 | 1.7 | 7.0 | 0.00 | 0.00 | 0.00 | 58 | 1007.5 |
| 20260508104553 | 50 | 260 | 1.7 | 7.0 | 0.00 | 0.00 | 0.00 | 57 | 1007.4 |
| 20260508103053 | 50 | 0 | 1.7 | 5.2 | 0.00 | 0.00 | 0.00 | 59 | 1007.4 |
| 20260508101554 | 50 | 142 | 0.9 | 5.2 | 0.00 | 0.00 | 0.00 | 59 | 1007.4 |
| 20260508100053 | 50 | 117 | 0.0 | 4.3 | 0.00 | 0.00 | 0.00 | 59 | 1007.3 |
| 20260508094555 | 50 | 304 | 0.9 | 5.2 | 0.00 | 0.00 | 0.00 | 59 | 1007.3 |
| 20260508093054 | 50 | 0 | 0.9 | 4.3 | 0.00 | 0.00 | 0.00 | 60 | 1007.3 |
| 20260508091608 | 49 | 360 | 1.7 | 8.7 | 0.00 | 0.00 | 0.00 | 60 | 1007.3 |
| 20260508090104 | 49 | 0 | 0.9 | 5.2 | 0.00 | 0.00 | 0.00 | 60 | 1007.3 |
| 20260508084552 | 50 | 0 | 0.9 | 4.3 | 0.00 | 0.00 | 0.00 | 60 | 1007.2 |
| 20260508083107 | 50 | 104 | 0.9 | 4.3 | 0.00 | 0.00 | 0.00 | 59 | 1007.1 |
| 20260508081551 | 50 | 298 | 0.0 | 4.3 | 0.00 | 0.00 | 0.00 | 58 | 1007.2 |
| 20260508080101 | 51 | 0 | 0.9 | 4.3 | 0.00 | 0.00 | 0.00 | 57 | 1007.1 |
| 20260508074555 | 51 | 103 | 0.0 | 4.3 | 0.00 | 0.00 | 0.00 | 57 | 1007.1 |
| 20260508073052 | 51 | 0 | 0.9 | 5.2 | 0.00 | 0.00 | 0.00 | 56 | 1007.0 |
| 20260508071555 | 51 | 119 | 4.3 | 9.6 | 0.00 | 0.00 | 0.00 | 54 | 1007.2 |
| 20260508070054 | 51 | 140 | 3.5 | 8.7 | 0.00 | 0.00 | 0.00 | 54 | 1007.1 |
| 20260508064556 | 51 | 124 | 0.9 | 6.1 | 0.00 | 0.00 | 0.00 | 54 | 1007.3 |
| 20260508063103 | 52 | 100 | 1.7 | 7.0 | 0.00 | 0.00 | 0.00 | 53 | 1007.7 |
| 20260508061554 | 52 | 111 | 2.6 | 7.8 | 0.00 | 0.00 | 0.00 | 52 | 1007.6 |
| 20260508060055 | 52 | 359 | 1.7 | 7.8 | 0.00 | 0.00 | 0.00 | 51 | 1007.8 |
| 20260508054555 | 53 | 130 | 1.7 | 8.7 | 0.00 | 0.00 | 0.00 | 49 | 1007.8 |
| 20260508053101 | 53 | 102 | 1.7 | 7.8 | 0.00 | 0.00 | 0.00 | 49 | 1007.8 |
| 20260508051606 | 52 | 139 | 0.0 | 5.2 | 0.00 | 0.00 | 0.00 | 50 | 1007.8 |
| 20260508050058 | 53 | 0 | 0.9 | 5.2 | 0.00 | 0.00 | 0.00 | 51 | 1007.5 |
| 20260508044551 | 53 | 338 | 0.0 | 4.3 | 0.00 | 0.00 | 0.00 | 49 | 1007.7 |
| 20260508043056 | 53 | 160 | 0.9 | 5.2 | 0.00 | 0.00 | 0.00 | 48 | 1007.8 |
| 20260508041555 | 53 | 268 | 0.9 | 7.0 | 0.00 | 0.00 | 0.00 | 48 | 1007.6 |
| 20260508040054 | 54 | 300 | 1.7 | 8.7 | 0.00 | 0.00 | 0.00 | 46 | 1007.5 |
| 20260508034552 | 54 | 275 | 0.9 | 4.3 | 0.00 | 0.00 | 0.00 | 46 | 1007.6 |
| 20260508033056 | 54 | 0 | 0.0 | 4.3 | 0.00 | 0.00 | 0.00 | 45 | 1007.7 |
| 20260508031556 | 55 | 30 | 0.9 | 5.2 | 0.00 | 0.00 | 0.00 | 44 | 1007.6 |
| 20260508030055 | 55 | 259 | 0.0 | 4.3 | 0.00 | 0.00 | 0.00 | 41 | 1007.7 |